Theta_e
284 284 284 284 285 285 285 286 286 286 286 285 285 285 285 285 285 285 285 285 285 285 285 285 286 286 286 286 286 286 286 286 286 286 286 286 287 287 287 287 287 287 287 287 287 287 287 287 287 287 288 288 288 288 288 288 289 289 289 289 289 290 290 290 291 291 292 292 293 293 292 292 293 293 293 293 293 294 294 295 295 295 295 295 295 295
284 284 284 285 285 286 286 286 286 285 285 285 285 284 284 285 285 285 285 285 285 285 285 286 286 286 286 286 286 286 286 286 286 286 286 286 286 286 286 286 286 286 286 286 286 286 287 287 287 287 287 287 288 288 288 288 288 288 289 289 289 289 290 290 290 291 292 292 292 292 292 292 292 292 292 293 293 293 293 294 294 294 294 294 294 294
284 284 285 285 286 286 286 285 285 285 285 284 284 284 284 285 285 285 285 285 285 286 286 286 286 286 285 285 285 285 285 285 285 285 285 285 285 285 285 285 286 286 286 286 286 286 286 286 286 287 287 287 287 287 288 288 288 289 289 289 289 289 289 290 291 291 291 291 292 292 292 292 291 291 291 291 292 292 292 293 293 293 294 294 294 294
285 285 285 286 286 286 285 285 285 284 284 284 285 285 285 285 285 285 285 286 286 286 286 285 285 285 284 284 284 284 284 284 284 284 284 284 284 285 285 285 285 285 285 285 285 286 286 286 286 287 287 287 287 287 288 288 288 289 289 289 289 290 290 290 291 291 291 291 291 291 290 290 290 289 290 290 290 291 291 292 292 292 293 293 293 293
285 285 286 285 285 285 285 284 284 284 285 285 285 285 285 285 286 286 286 286 286 285 285 284 284 284 284 283 283 283 283 283 284 284 284 284 284 284 284 284 284 284 285 285 285 286 286 286 286 287 287 287 287 288 288 288 288 289 289 289 290 290 290 290 290 290 290 290 290 289 289 289 289 288 289 289 289 290 290 291 291 291 292 292 292 292
286 286 285 285 285 284 284 284 285 285 285 285 285 286 286 286 286 286 286 285 284 284 284 283 283 283 283 283 283 283 283 283 283 283 283 283 283 283 284 284 284 284 285 285 285 286 286 286 286 287 287 287 288 288 288 288 288 289 289 289 290 289 290 289 289 289 289 289 288 288 288 288 288 288 288 288 289 289 289 290 290 290 291 291 291 291
286 285 285 285 284 285 285 285 285 285 286 286 286 286 286 286 285 285 284 284 284 283 283 283 283 283 283 282 282 282 282 282 282 282 283 283 283 283 284 284 284 285 285 285 285 286 286 286 286 286 287 287 287 287 288 288 288 289 289 288 288 288 288 288 288 287 287 287 287 287 287 287 287 288 288 288 288 289 289 289 290 290 290 291 291 291
285 285 284 285 285 285 285 286 286 286 286 286 286 285 285 284 284 284 284 283 283 283 283 283 282 282 282 282 282 282 282 282 282 282 283 283 283 283 284 284 284 284 285 285 285 285 285 286 286 286 286 286 287 287 287 288 288 288 287 287 286 286 286 286 286 286 286 286 287 287 287 287 287 287 288 288 288 289 289 289 290 290 290 290 291 291
285 285 285 285 285 286 286 286 286 286 286 285 285 284 284 283 283 283 283 283 283 283 282 282 282 282 282 282 282 282 282 282 282 283 283 283 283 283 283 284 284 284 284 284 284 285 285 285 285 286 286 286 286 286 287 286 286 286 286 285 285 285 285 285 285 286 286 286 286 286 287 287 287 288 288 288 289 289 289 289 289 290 290 290 290 291
285 285 285 286 286 286 286 286 285 285 285 284 284 284 283 283 283 283 283 283 282 282 282 282 282 281 282 282 282 282 282 283 283 283 283 283 283 283 283 283 283 283 283 284 284 284 284 285 285 285 285 285 285 285 285 285 285 285 285 285 285 285 285 285 285 285 285 286 286 286 287 287 287 287 288 288 288 289 289 289 289 290 290 290 290 290
285 286 286 286 286 286 286 285 285 284 284 284 284 283 283 283 283 283 282 282 282 282 281 281 282 282 282 282 282 283 283 283 283 282 282 282 282 282 282 282 283 283 283 283 283 284 284 284 284 284 284 284 284 284 284 284 284 284 284 284 284 284 284 285 285 285 285 285 286 286 286 287 287 287 288 288 288 288 289 289 289 289 290 290 290 290
286 286 287 286 286 285 284 284 284 284 284 284 283 283 283 283 282 282 282 281 281 281 282 282 282 282 282 283 283 283 283 282 282 282 281 281 281 281 282 282 282 282 282 282 282 282 282 283 283 283 283 283 283 283 284 284 284 284 284 284 284 284 284 284 284 284 285 285 285 286 286 286 287 287 287 288 288 288 289 289 289 289 290 290 290 291
287 287 286 285 284 284 284 284 284 284 283 283 283 283 282 282 282 281 281 281 281 282 282 282 283 283 283 283 283 283 282 282 282 281 281 281 281 281 281 282 282 282 282 282 282 282 282 282 282 282 282 283 283 283 284 284 284 284 283 283 283 284 284 284 284 285 285 285 285 286 286 286 287 287 287 288 288 288 289 289 289 290 291 291 291 291
286 285 285 284 284 284 284 284 284 283 283 282 282 282 282 281 281 281 281 282 282 282 282 283 283 283 283 283 282 282 282 282 282 282 282 282 282 282 282 282 282 282 282 282 281 281 282 282 282 282 282 283 283 283 283 283 283 283 283 283 283 284 284 284 284 285 285 286 286 286 286 287 287 287 288 288 288 289 289 290 290 291 291 291 291 291
285 284 284 284 284 284 284 283 283 283 282 282 282 281 281 281 281 282 282 282 282 283 283 283 283 283 283 282 282 282 282 282 282 282 282 282 282 282 282 282 282 282 282 282 282 282 282 282 282 282 282 282 282 282 282 282 282 283 283 283 283 284 284 285 285 285 286 286 286 287 287 287 287 288 288 288 289 289 290 290 291 291 291 291 291 291
284 284 283 283 283 283 283 282 282 282 281 281 281 281 281 281 282 282 282 283 283 283 283 283 283 283 282 282 282 282 282 282 282 282 282 282 282 282 282 282 282 282 282 282 282 282 282 282 282 282 282 282 282 282 282 282 282 283 283 283 284 284 285 285 285 286 286 286 286 287 287 287 288 288 288 289 289 290 290 290 290 290 290 290 290 290
283 283 283 283 283 282 282 282 281 281 281 281 281 281 282 282 282 282 283 283 283 283 283 283 283 283 282 282 282 282 282 282 282 282 282 282 282 282 282 282 282 281 282 282 282 282 282 282 282 282 282 282 282 282 282 282 283 283 283 284 284 284 285 285 285 286 286 286 287 287 287 288 288 288 289 289 289 289 289 289 289 289 289 289 289 289
283 283 283 282 282 282 282 281 281 281 281 282 282 282 282 282 283 283 283 283 283 283 283 283 283 283 283 283 283 282 282 282 282 282 282 282 282 282 282 282 282 282 282 282 282 282 282 282 282 282 281 281 282 282 282 283 283 283 284 284 284 284 285 285 285 286 286 286 287 287 287 287 288 288 288 288 288 288 288 288 288 289 289 289 289 289
283 282 282 282 281 281 281 281 281 282 282 282 282 282 283 283 283 284 284 283 283 283 283 283 283 283 283 283 283 282 282 282 282 282 282 282 282 282 282 282 282 282 282 282 282 282 282 282 281 281 281 281 282 282 282 283 283 283 284 284 284 284 285 285 285 286 286 286 286 287 287 287 287 287 288 288 288 288 288 288 288 288 289 289 289 290
282 282 281 281 281 281 281 282 282 282 282 282 283 283 283 284 284 284 283 283 283 282 282 283 283 283 283 283 282 282 282 282 282 282 282 282 282 282 282 282 282 282 282 282 282 282 281 281 281 281 281 281 282 282 282 283 283 283 284 284 284 284 285 285 285 285 286 286 286 286 286 287 287 287 287 288 288 288 288 288 288 289 289 289 289 289
281 281 281 281 281 281 282 282 282 282 283 283 283 284 284 284 283 283 283 283 283 283 283 283 283 283 283 282 282 282 282 282 282 282 282 282 282 282 282 282 282 282 282 282 281 281 281 281 281 281 281 281 282 282 282 283 283 283 284 284 284 284 284 285 285 285 285 286 286 286 286 287 287 287 287 288 288 288 288 288 288 289 289 289 289 289
281 281 282 282 282 282 282 283 283 283 283 283 284 284 284 283 283 283 283 283 283 283 283 283 283 283 282 282 282 282 282 282 282 282 282 282 282 282 282 282 282 281 281 281 281 281 281 281 281 281 281 281 282 282 282 283 283 283 283 284 284 284 284 285 285 285 285 286 286 286 286 287 287 287 287 288 288 288 288 288 288 288 289 289 289 290
282 282 282 282 283 283 283 283 283 284 284 284 283 283 283 283 283 283 283 283 283 283 283 283 282 282 282 282 282 282 281 281 281 281 282 282 282 282 282 282 281 281 281 281 281 281 281 281 281 281 281 281 282 282 282 282 283 283 283 283 284 284 284 285 285 285 285 286 286 286 286 286 287 287 287 287 288 288 288 288 288 288 289 289 289 290
282 283 283 283 284 284 284 284 284 284 283 283 283 283 283 283 283 283 283 283 283 283 282 282 282 282 282 282 281 281 281 281 281 281 281 282 282 282 281 281 281 281 281 281 281 281 281 281 281 281 281 281 281 282 282 282 283 283 283 283 284 284 284 285 285 285 285 286 286 286 286 287 287 287 287 288 288 288 288 288 289 289 289 289 289 290
283 284 284 284 284 284 284 283 283 283 283 283 283 283 283 283 283 283 283 283 282 282 282 282 282 282 281 281 281 281 281 281 281 281 281 281 281 281 281 281 281 281 281 281 281 281 281 281 281 281 281 281 281 282 282 282 283 283 283 283 284 284 284 284 285 285 285 286 286 286 287 287 287 287 288 288 288 288 288 288 289 289 289 289 289 289
284 284 284 284 283 283 283 282 282 282 283 283 283 283 283 283 283 283 283 282 282 282 282 282 281 281 281 281 281 281 281 281 281 281 281 281 281 281 281 281 281 281 281 281 281 281 281 281 281 281 281 281 281 281 282 282 282 283 283 283 284 284 284 285 285 285 285 286 286 286 286 286 286 287 287 287 287 288 288 288 288 288 288 288 289 289
284 283 283 282 282 282 282 282 282 282 282 282 282 282 282 283 283 283 282 282 282 282 281 281 281 281 281 281 281 281 281 281 281 281 281 281 281 281 281 281 281 281 281 281 281 281 281 281 281 281 281 281 281 281 281 282 282 283 283 283 284 284 284 284 284 285 285 285 285 285 285 286 286 286 286 287 287 287 287 288 288 288 288 288 288 288
282 281 281 281 281 281 281 281 281 281 282 282 282 282 282 282 282 282 282 282 281 281 281 281 281 281 281 281 281 281 281 281 281 281 281 281 281 281 281 281 281 281 281 281 281 281 281 281 281 281 281 281 281 281 281 282 282 283 283 283 283 283 283 284 284 284 284 284 285 285 285 286 286 286 287 287 287 288 288 288 288 288 289 289 289 289
280 280 280 280 280 281 281 281 281 281 281 281 282 282 282 282 282 282 281 281 281 281 281 281 281 281 281 281 281 281 281 281 281 281 281 281 281 281 281 281 281 281 281 281 281 281 281 281 281 281 281 281 281 282 282 282 282 282 282 282 283 283 283 283 283 284 284 284 285 285 286 286 286 287 287 287 287 288 288 288 288 288 288 289 289 289
280 280 280 280 280 280 280 280 280 280 281 281 281 281 281 281 281 281 281 281 281 281 281 281 281 281 281 281 281 280 280 281 281 281 281 281 281 281 281 281 281 281 281 281 281 281 281 281 281 281 281 281 282 282 282 282 282 282 282 282 282 282 283 283 283 284 284 285 285 285 286 286 286 286 286 286 287 287 287 287 287 287 288 288 288 288
280 280 280 280 280 280 280 280 280 280 280 281 281 281 281 280 280 280 280 280 280 280 280 280 280 280 280 280 280 280 280 281 281 281 281 281 281 281 281 281 281 281 281 281 281 281 281 281 281 281 281 281 281 281 282 282 282 282 282 282 282 282 283 283 283 284 284 284 285 285 285 285 285 285 285 286 286 286 286 286 287 287 287 287 287 288
280 280 280 280 280 280 280 280 280 280 280 280 280 280 280 280 280 280 280 280 280 280 280 280 280 280 280 280 280 280 280 280 280 280 281 281 281 281 281 281 281 281 281 281 281 281 281 281 281 281 281 281 281 282 282 282 282 282 282 282 282 282 283 283 283 283 284 284 284 284 284 284 285 285 285 285 285 285 286 286 286 287 287 287 287 287
280 280 280 280 280 280 280 280 280 280 280 280 280 280 280 280 280 280 280 280 280 280 280 280 280 280 280 280 280 280 280 280 280 280 281 281 281 281 281 281 281 281 281 281 281 281 281 281 281 281 281 281 282 282 282 282 282 282 282 282 282 282 283 283 283 283 283 283 283 283 284 284 284 284 284 284 285 285 285 286 286 286 287 287 287 287
280 280 280 280 280 280 280 280 280 280 280 280 280 280 280 280 280 280 280 280 280 280 280 280 280 280 280 280 280 280 280 280 280 280 281 281 281 281 281 281 281 281 281 281 281 281 281 281 281 281 282 282 282 282 282 282 282 282 282 282 282 282 282 283 283 283 283 283 283 283 283 283 283 283 283 284 284 284 285 285 285 286 286 287 287 287
280 280 280 280 280 280 279 279 279 279 280 280 280 280 280 279 279 279 279 279 279 279 279 280 280 280 280 280 280 280 280 280 280 280 281 281 281 281 281 281 281 281 281 281 281 281 281 281 281 282 282 282 282 282 282 282 282 282 282 282 282 282 282 282 282 282 282 282 282 282 282 282 282 283 283 283 283 284 284 285 285 286 286 286 287 287
280 280 280 279 279 279 279 279 279 279 279 279 279 279 279 279 279 279 279 279 279 279 279 279 280 280 280 280 280 280 280 280 280 280 281 281 281 281 281 281 281 281 281 281 281 281 281 281 281 282 282 282 282 282 282 282 282 282 282 282 282 282 282 282 282 282 282 282 282 282 282 282 283 283 283 283 284 284 285 285 285 286 286 286 287 287
279 279 279 279 279 279 279 279 279 279 279 279 279 279 279 279 279 279 279 279 279 279 279 279 280 280 280 280 280 280 280 280 280 280 280 280 281 281 281 281 281 281 281 281 281 281 281 281 281 282 282 282 282 282 282 282 282 282 282 282 282 282 282 282 282 282 282 282 282 282 283 283 283 283 283 284 284 284 285 285 285 286 286 286 287 287
279 279 279 279 279 279 279 279 279 279 279 279 279 279 279 279 279 279 279 279 279 279 279 279 280 280 280 280 280 280 280 280 280 280 281 281 281 281 281 281 281 281 281 281 281 281 281 281 281 281 282 282 282 282 282 282 282 282 282 282 282 282 282 282 282 282 282 283 283 283 283 283 284 284 284 284 284 284 284 285 285 285 286 286 286 287
279 279 279 279 279 279 279 279 279 279 279 279 279 279 279 279 279 279 279 279 279 279 280 280 280 280 280 280 280 280 280 281 281 281 281 281 281 281 281 281 281 281 281 281 281 281 281 281 281 282 282 282 282 282 282 282 282 282 282 282 282 282 282 283 283 283 283 283 283 283 283 284 284 284 284 284 284 284 284 285 285 285 285 285 286 286
279 279 279 279 279 279 279 279 279 279 279 279 279 279 279 279 279 279 279 279 280 280 280 280 280 280 280 280 280 281 281 281 281 280 281 281 281 281 281 281 281 281 281 281 281 281 281 281 282 282 282 281 281 281 281 281 281 282 282 282 282 283 283 283 283 283 283 283 283 283 284 284 284 284 285 285 285 285 285 285 285 285 286 286 286 286
279 279 278 279 279 279 279 279 279 279 279 279 279 279 279 279 279 279 279 280 280 280 280 280 280 280 280 280 280 280 280 280 281 281 281 281 281 281 281 281 281 281 281 281 281 281 282 282 281 281 281 281 281 281 281 281 281 281 282 282 282 282 282 283 283 283 283 283 284 284 284 284 285 285 285 286 286 286 286 286 286 286 286 286 286 286
278 278 278 278 278 278 278 278 278 279 279 279 279 279 279 279 279 279 280 280 280 280 280 280 280 280 280 280 280 280 280 281 281 281 281 281 281 281 281 281 281 281 281 281 282 282 281 281 281 281 281 281 281 281 281 281 281 281 281 282 282 282 282 283 283 283 284 284 284 284 285 285 285 286 286 286 286 287 287 287 287 287 287 287 286 286
278 278 278 278 278 278 278 278 278 279 279 279 279 279 279 279 279 279 280 280 280 280 280 280 280 280 280 280 280 281 281 281 281 281 281 281 281 281 281 282 282 282 282 281 281 281 281 281 280 281 281 280 280 280 280 280 281 281 281 282 282 282 283 283 284 284 284 284 284 285 285 285 286 286 287 287 287 288 288 288 288 288 288 288 288 287
278 278 278 278 278 278 278 278 278 278 279 279 279 279 279 279 279 279 280 280 280 280 280 280 280 280 280 280 280 281 281 281 281 281 281 282 282 282 282 282 281 281 281 281 281 281 280 280 280 280 280 280 280 280 280 280 281 281 282 282 282 283 283 283 284 284 284 284 285 285 286 286 286 287 287 288 288 288 289 289 289 289 290 290 289 289
278 278 278 278 278 278 278 278 278 278 279 279 279 279 279 279 279 279 280 280 280 280 280 280 280 280 280 281 281 281 281 281 281 281 282 282 282 282 282 281 281 281 281 281 281 280 280 280 280 280 280 280 280 280 280 280 281 281 282 282 283 283 283 284 284 284 284 285 285 286 286 287 287 287 288 288 289 289 289 289 290 290 290 290 290 290
278 278 278 278 278 278 278 278 278 278 279 279 279 279 279 279 279 279 280 280 280 280 280 280 280 280 280 281 281 281 281 281 281 282 282 282 282 282 281 281 281 281 281 281 281 280 280 280 280 280 280 280 280 280 280 281 281 281 282 283 283 283 284 284 284 285 285 285 286 286 287 288 288 288 288 289 289 289 289 290 290 290 290 291 291 291
277 278 278 278 278 278 278 278 278 278 279 279 279 279 279 279 279 280 280 280 280 280 280 280 280 280 280 281 281 281 281 281 282 282 282 282 282 282 281 281 281 281 281 281 281 280 280 280 280 280 280 280 280 281 281 281 281 282 282 283 283 284 284 284 285 285 286 286 287 287 288 288 288 289 289 289 289 289 290 290 290 290 290 291 291 291
277 277 277 277 278 278 278 278 278 278 279 279 279 279 279 279 279 280 280 280 280 280 280 280 280 280 281 281 281 281 281 282 282 282 282 282 282 281 281 281 281 281 281 281 281 281 281 281 281 281 280 280 280 281 281 281 282 282 283 283 284 284 284 285 285 286 286 287 287 288 288 289 289 289 289 289 290 290 290 290 290 290 291 291 291 291
277 277 277 277 278 278 278 278 278 278 278 279 279 279 279 279 279 280 279 279 280 280 280 280 280 281 281 281 281 281 282 282 282 282 282 282 282 282 281 281 281 281 281 281 281 281 281 281 281 282 282 281 281 281 281 282 282 283 284 284 284 284 285 285 285 286 287 287 288 288 289 289 289 289 289 290 290 290 290 290 290 291 291 291 291 291
277 277 277 277 278 278 278 278 278 278 278 279 279 279 279 279 279 279 279 280 280 280 280 280 280 281 281 281 281 282 282 282 282 282 282 282 282 281 281 281 281 281 281 281 281 281 281 281 282 282 283 283 283 282 282 283 284 284 284 284 284 284 285 285 286 286 287 288 288 289 289 290 290 290 290 290 290 290 290 290 291 291 291 291 291 291
277 277 277 277 278 278 278 278 278 278 279 279 279 279 279 279 279 279 279 280 280 280 280 280 280 281 281 282 282 282 282 282 282 282 282 282 282 281 281 281 281 281 281 281 281 281 281 281 282 282 283 284 284 284 284 284 284 284 284 284 284 285 285 285 286 287 287 288 289 289 289 290 290 290 290 290 290 290 290 290 291 291 291 291 291 292
Wind_Speed
27 28 28 28 28 28 28 26 25 27 29 30 29 29 29 30 30 30 29 29 29 29 29 29 29 29 30 30 32 33 35 36 37 37 37 37 37 38 38 38 38 38 39 39 39 39 40 40 40 39 39 39 38 38 38 38 38 38 38 38 38 38 37 37 37 37 37 37 36 35 34 32 31 30 30 30 31 31 31 31 31 30 29 29 30 30
27 28 28 27 26 27 28 27 27 27 29 31 31 31 30 31 31 30 30 29 28 27 27 27 28 29 31 33 34 34 35 35 36 36 36 36 36 37 37 38 38 38 39 39 39 39 40 39 39 39 39 38 38 37 37 37 37 37 37 37 37 37 37 37 37 37 37 36 35 33 32 30 29 29 29 29 30 30 31 31 31 30 30 29 29 29
28 28 28 26 25 25 27 29 30 29 30 31 32 32 31 31 30 29 28 27 26 26 25 26 29 31 32 33 33 33 33 33 34 34 35 35 36 37 37 38 39 39 39 39 39 39 39 39 38 38 38 37 37 37 37 37 37 37 38 37 37 37 37 37 37 36 36 34 33 32 31 31 31 31 31 31 31 31 32 32 32 32 32 31 31 30
26 27 28 27 26 26 28 29 31 31 31 31 31 31 30 29 27 26 25 24 25 26 26 27 29 31 31 31 31 31 32 32 33 34 35 36 37 37 38 38 39 39 39 39 38 38 38 37 37 37 37 37 37 37 37 38 37 38 38 38 38 37 37 37 36 35 34 33 32 32 32 33 34 35 35 35 35 35 34 34 34 35 35 34 34 33
25 26 27 28 28 28 29 30 30 31 31 29 28 28 26 25 23 23 23 24 25 27 28 29 30 30 31 31 31 31 32 33 34 35 36 36 37 37 38 38 37 37 37 37 36 36 36 37 37 37 37 37 37 38 38 38 37 37 38 37 37 36 35 34 34 34 33 33 34 34 34 35 36 37 38 38 38 38 37 37 37 37 36 36 36 36
25 26 27 28 29 30 31 31 30 29 27 25 23 23 22 22 22 22 23 26 27 28 30 30 30 30 31 31 31 31 32 33 34 35 35 36 36 36 36 35 35 35 35 35 35 36 36 37 37 37 37 37 37 37 37 37 37 37 36 35 34 33 32 33 34 35 35 36 36 36 36 36 37 37 38 38 39 39 39 38 38 38 38 37 37 37
26 27 27 28 30 31 30 29 27 25 22 20 20 21 22 22 23 24 25 27 29 30 30 31 31 31 31 31 31 31 32 32 33 33 33 33 33 33 33 33 33 34 34 35 35 36 36 37 37 37 36 36 36 36 37 37 36 36 36 34 34 34 34 35 36 36 37 37 37 37 37 37 37 37 37 38 38 38 38 38 38 38 38 38 38 38
27 29 29 29 30 30 28 25 21 19 18 18 20 22 24 25 26 28 29 30 30 30 30 31 31 31 31 31 31 31 31 30 30 30 30 30 30 31 31 32 33 33 34 35 35 36 36 36 36 36 36 36 36 36 36 36 36 37 37 37 37 37 37 37 37 37 37 37 37 37 37 37 37 36 36 36 36 37 37 37 37 37 37 37 38 38
27 29 30 30 29 26 23 19 16 16 18 20 21 22 24 26 28 30 30 30 30 30 30 31 32 32 32 31 30 29 28 28 27 28 28 29 30 31 32 32 33 34 34 34 34 35 35 35 35 35 35 35 35 35 36 36 36 37 37 37 38 37 37 37 36 36 36 36 36 36 36 36 35 35 35 35 35 35 35 35 36 36 37 37 37 37
28 28 29 28 24 19 15 15 17 19 21 22 23 23 23 25 27 29 30 31 31 31 30 30 31 31 31 30 28 26 26 26 27 28 30 31 32 33 33 33 33 33 33 33 33 34 34 34 34 34 34 35 35 35 36 36 36 36 37 37 37 37 36 36 35 35 35 35 35 34 34 34 34 34 34 34 34 34 34 34 35 35 36 36 37 37
27 27 25 20 16 13 13 16 20 22 24 25 26 26 26 26 27 27 28 29 31 32 31 30 30 29 29 28 26 25 25 26 29 31 32 32 32 32 31 31 31 31 32 32 32 33 33 33 34 34 34 35 35 35 35 35 36 36 36 36 36 36 36 35 35 34 34 34 33 33 33 33 33 33 33 33 33 33 34 34 34 34 35 35 36 37
24 21 16 12 12 15 18 21 24 25 26 26 26 27 28 29 29 28 27 28 29 31 31 30 30 29 27 26 25 25 26 28 30 31 31 30 29 28 28 28 28 29 29 30 31 32 32 33 33 34 34 34 34 34 34 34 35 35 35 36 36 36 35 35 34 34 34 33 33 33 33 33 33 33 34 34 34 34 34 34 34 35 35 36 37 38
17 13 11 13 16 19 22 24 26 27 27 26 25 24 26 29 30 29 28 28 29 29 30 30 29 28 26 24 24 25 27 29 30 29 28 27 26 26 25 26 27 28 28 29 30 31 31 32 32 33 33 33 33 33 33 34 34 35 35 36 36 35 35 34 34 34 34 33 34 34 34 34 34 34 34 34 34 34 35 35 35 36 36 36 37 37
12 13 15 18 20 23 24 26 26 25 26 26 26 26 28 29 30 29 28 28 29 29 28 27 26 26 26 25 24 25 27 27 28 28 27 26 26 25 25 26 27 29 29 29 30 31 31 31 31 31 31 31 31 32 32 33 34 35 35 35 35 35 35 34 34 34 34 34 34 35 35 35 35 35 35 35 35 35 36 36 36 35 35 35 35 35
14 16 16 17 20 23 25 26 26 25 27 28 28 29 29 29 29 28 26 26 27 27 26 24 24 26 27 26 26 25 25 25 25 26 26 27 27 26 26 27 28 30 30 29 30 31 30 29 29 29 29 30 31 31 32 33 34 35 35 35 35 35 35 35 35 35 35 35 35 35 35 35 35 35 35 35 35 36 36 36 35 34 32 32 32 32
19 19 17 17 20 24 26 26 26 26 27 28 28 28 28 27 27 26 24 23 24 23 21 20 20 22 25 28 27 24 23 23 23 24 26 28 29 28 27 28 29 30 30 30 30 30 29 28 28 28 28 29 31 32 33 34 35 35 35 36 36 36 36 36 36 36 36 36 35 35 35 35 36 36 36 35 35 36 36 35 34 32 31 32 32 32
23 22 21 20 21 24 26 27 26 26 27 28 28 28 27 26 25 24 22 21 20 19 18 17 12 9 14 25 28 24 22 22 23 25 27 29 31 30 29 28 28 29 30 30 29 29 28 27 27 27 28 29 31 32 34 35 35 36 36 36 36 36 36 36 36 36 36 35 35 35 35 35 35 35 35 35 36 36 35 34 33 32 31 32 32 33
23 23 23 21 22 24 26 26 26 27 27 27 28 28 27 25 24 23 21 20 18 18 18 18 13 9 8 10 20 27 25 24 25 26 28 30 31 31 29 28 28 29 29 29 28 27 26 26 27 29 30 32 33 34 35 36 36 36 36 36 36 36 36 36 36 35 35 35 35 35 35 35 35 35 35 35 35 35 35 34 33 32 32 32 33 33
24 25 24 23 23 25 26 26 26 27 27 27 26 25 24 23 22 20 19 20 21 21 21 18 16 15 15 17 24 29 28 27 26 27 27 28 30 31 28 27 26 27 27 26 26 25 26 28 29 31 32 33 34 35 35 35 35 35 35 35 35 35 35 35 35 36 36 36 36 35 35 35 35 35 35 35 35 35 35 34 34 33 32 33 33 33
26 26 25 24 25 25 26 27 27 27 27 26 24 22 20 21 21 22 23 24 25 25 24 21 19 19 22 25 28 30 29 27 26 25 26 27 29 29 27 25 24 24 25 25 25 26 28 30 31 32 32 33 33 34 34 34 34 34 34 35 35 35 36 36 36 36 36 36 36 36 36 36 36 36 36 35 35 35 35 35 34 34 33 33 34 34
26 26 27 26 25 25 24 27 28 27 26 25 23 22 21 22 23 25 26 26 24 23 22 19 19 21 24 26 29 30 29 27 24 23 23 25 27 27 26 24 23 24 26 28 28 29 29 30 32 32 31 31 30 31 32 32 33 34 35 35 36 36 36 37 37 37 37 37 36 36 36 36 36 36 36 36 35 35 35 35 35 34 34 34 34 34
26 27 28 28 27 26 26 28 28 27 26 24 22 21 22 24 25 25 26 24 23 22 21 20 22 25 27 28 30 30 28 25 23 22 21 17 20 26 26 25 24 25 26 27 27 27 28 28 28 28 28 29 30 31 32 33 34 35 35 36 36 36 37 37 37 37 36 36 36 36 36 36 36 36 36 35 35 35 35 35 35 34 34 34 34 35
27 27 28 28 27 27 27 27 26 25 24 24 24 23 23 24 24 23 23 23 23 23 24 25 27 28 28 28 28 28 26 23 22 21 20 13 16 24 27 25 24 24 25 26 26 26 27 28 28 29 29 30 31 32 33 33 34 35 35 36 36 36 36 36 36 36 36 36 36 36 36 36 36 36 36 36 36 35 35 35 35 35 35 35 35 35
26 26 26 26 26 25 25 25 25 25 26 27 27 27 26 26 26 25 26 25 25 24 25 26 26 26 27 27 27 26 25 23 22 21 19 13 15 22 27 25 24 24 26 27 27 28 28 29 29 29 29 30 31 31 32 33 34 34 35 35 35 35 35 35 35 36 36 36 36 36 36 36 37 37 37 36 36 36 36 36 36 36 35 35 35 35
24 25 25 25 26 27 28 29 30 30 30 29 29 28 28 28 28 29 28 27 25 24 24 24 22 21 24 25 25 25 25 23 22 21 19 16 19 24 26 25 24 24 26 28 28 28 28 29 29 30 29 30 30 31 31 32 33 33 34 34 34 34 34 34 35 35 35 35 36 36 36 36 37 37 37 37 37 37 37 36 36 36 36 36 36 36
24 24 25 26 28 29 30 30 31 30 30 30 29 29 29 29 29 27 25 23 21 21 20 17 14 16 21 22 22 22 24 23 22 21 20 19 19 22 25 25 24 24 26 28 28 28 28 29 30 30 30 30 30 30 30 31 32 32 32 32 32 33 33 33 33 34 34 35 35 36 36 36 36 36 37 36 36 36 36 36 36 36 36 36 37 37
22 24 26 27 28 29 29 29 29 30 30 29 29 29 29 28 27 24 22 20 20 19 17 11 10 13 17 17 18 21 24 24 23 22 21 20 18 18 22 24 24 24 26 28 28 28 28 28 29 29 29 29 29 29 28 28 29 29 30 31 31 32 33 33 34 34 35 35 36 36 36 36 36 36 36 36 36 36 36 36 36 36 37 37 37 37
22 24 26 27 27 28 28 28 28 28 28 28 28 27 27 25 23 20 19 20 21 20 18 12 9 9 9 9 16 23 25 25 23 22 21 20 16 16 21 24 25 25 25 27 28 29 28 27 26 27 26 26 26 26 26 26 27 28 29 31 32 33 33 34 34 35 35 35 35 36 36 36 36 36 36 36 36 36 36 36 36 36 36 35 35 35
24 25 26 26 26 27 27 27 27 27 26 26 26 25 24 23 20 19 20 22 21 20 17 15 12 10 10 14 20 24 24 24 23 22 21 19 16 18 23 25 25 25 25 24 25 26 25 24 23 23 23 24 24 24 25 26 27 29 30 31 32 33 33 33 33 33 34 34 34 34 35 35 35 35 35 35 35 35 35 35 35 34 33 33 32 31
26 26 26 26 26 26 26 26 26 25 24 24 24 23 22 21 20 21 22 21 20 18 17 17 17 15 14 15 14 14 16 21 23 22 21 17 16 18 23 24 24 24 23 19 15 15 18 21 22 22 22 24 25 26 27 28 28 29 29 29 30 30 30 31 31 32 32 33 33 33 33 33 34 34 34 35 35 35 35 35 34 32 31 30 29 29
26 26 26 26 25 25 25 24 24 23 23 23 22 21 21 20 20 20 21 20 19 18 19 18 19 19 17 10 6 5 6 19 25 24 23 19 17 19 23 22 22 23 22 17 9 5 9 12 20 25 24 25 26 27 27 27 27 27 27 27 28 28 29 29 30 30 31 31 32 32 33 33 33 34 34 34 35 35 34 34 33 32 30 29 28 27
25 25 25 25 24 24 23 23 22 22 22 22 22 21 20 20 20 20 20 20 20 19 20 20 20 20 20 14 10 8 9 22 28 27 25 21 20 21 23 22 22 23 23 21 15 9 7 5 15 27 28 27 27 27 27 27 26 26 26 26 27 27 28 29 29 29 30 30 31 32 32 33 33 33 34 34 34 34 34 34 33 31 29 28 27 27
24 24 24 24 23 23 22 22 22 22 22 22 22 22 21 20 20 20 20 21 20 20 21 21 20 20 20 19 17 17 21 26 28 28 26 22 20 20 23 23 22 22 23 22 21 17 11 9 15 24 28 28 27 26 26 26 26 26 25 25 25 26 28 28 28 28 29 30 31 31 32 32 32 32 33 33 33 33 33 33 33 32 30 28 27 26
24 23 23 23 23 22 22 22 22 22 22 21 21 21 21 21 21 21 21 21 21 21 21 21 21 21 20 19 19 21 25 28 28 28 26 23 21 21 23 22 21 21 20 19 20 20 17 18 19 19 21 27 28 27 26 26 26 25 24 24 25 26 28 28 28 28 29 30 30 30 30 31 31 31 31 31 31 31 31 31 31 31 31 30 28 26
23 23 22 22 22 22 22 22 22 22 22 22 22 22 22 22 23 23 23 23 23 22 22 23 23 22 22 20 18 20 25 29 30 29 27 25 22 22 23 22 22 20 18 17 16 15 12 17 20 19 15 19 24 27 27 26 25 25 24 24 25 26 27 27 27 28 29 29 30 30 30 30 31 31 30 30 30 30 30 30 31 31 31 31 30 29
22 22 22 21 21 21 22 22 22 22 22 22 22 23 23 23 24 24 24 25 24 24 24 25 25 25 25 24 22 23 26 30 31 31 29 28 25 23 22 23 23 22 19 17 16 14 10 12 17 20 16 11 14 21 27 28 27 25 25 25 25 26 27 27 28 28 28 28 29 29 30 30 30 30 30 31 31 31 31 31 32 32 32 33 33 32
21 21 21 21 21 21 21 22 22 22 22 23 23 24 24 25 25 26 26 26 26 26 26 26 26 26 26 26 27 28 29 31 32 32 32 32 30 27 23 23 24 24 20 18 18 17 14 11 12 14 12 9 8 13 22 28 28 27 26 25 25 26 27 28 28 28 28 27 27 28 29 29 29 30 30 31 31 31 31 31 32 32 32 33 33 34
20 20 21 21 21 21 21 22 22 22 23 24 24 25 26 26 27 27 27 27 27 27 27 27 27 27 28 28 30 31 32 33 34 35 35 34 32 29 25 24 24 23 21 20 19 18 15 11 11 11 10 9 12 18 24 26 26 27 27 27 26 26 27 28 28 27 27 26 27 28 29 29 29 29 30 30 29 28 28 29 30 29 30 30 31 32
20 20 21 21 21 21 22 22 22 23 24 25 25 26 26 27 27 27 26 26 26 26 26 26 27 28 28 29 30 30 31 31 33 33 33 32 31 29 26 24 23 24 23 22 21 20 17 13 10 9 10 9 13 20 25 25 25 25 27 28 28 27 26 26 26 26 26 27 27 28 28 29 29 29 28 28 28 27 26 27 27 27 27 26 26 27
20 21 21 22 22 22 22 23 23 24 25 26 26 26 26 26 25 26 26 25 25 25 25 25 26 26 27 27 27 28 29 30 30 30 30 30 29 28 26 24 23 23 23 23 21 20 19 16 15 15 15 12 11 15 21 24 25 26 26 22 22 25 28 28 28 28 28 28 28 27 28 28 28 27 27 27 26 26 26 26 26 26 26 24 23 22
20 21 22 22 23 23 23 24 25 25 25 25 25 25 25 24 24 25 25 25 25 25 24 25 25 26 26 26 27 27 27 27 27 26 27 27 27 27 25 25 25 24 23 22 21 20 19 18 19 19 19 19 18 18 20 23 26 27 25 20 20 25 29 29 29 28 28 27 27 27 27 27 26 26 26 26 26 27 27 27 26 26 26 24 23 21
20 21 22 23 23 24 24 25 25 25 25 24 24 24 24 23 23 24 25 25 25 25 24 24 25 25 26 26 25 25 24 24 24 24 25 25 25 25 24 24 24 24 23 22 21 20 20 20 20 20 20 19 18 16 17 23 26 26 24 22 24 26 28 28 27 26 25 26 27 28 27 26 26 26 26 26 27 28 28 27 26 25 25 24 23 23
21 22 23 23 24 25 25 25 25 24 24 24 23 23 24 23 24 24 24 24 25 25 25 24 24 24 23 24 25 25 24 23 23 23 23 23 23 23 22 23 23 23 22 21 20 21 22 21 20 20 20 20 19 16 14 20 24 25 25 25 24 19 14 20 26 27 26 26 27 28 27 26 26 26 27 27 27 27 27 26 25 24 24 23 23 23
22 22 23 23 24 24 24 24 24 24 24 24 24 24 24 24 24 23 23 24 24 25 25 25 24 22 21 21 23 24 24 24 23 23 22 22 21 21 21 21 22 22 22 21 20 20 21 21 21 21 21 20 19 18 17 19 21 23 24 25 23 18 12 17 25 29 28 27 27 27 27 27 27 27 27 26 26 26 25 24 24 24 23 23 22 22
22 22 23 23 23 23 23 23 24 24 24 24 24 24 24 24 24 23 23 23 24 25 25 23 21 20 18 20 22 23 24 24 23 22 22 22 21 21 21 21 21 22 22 21 21 20 19 19 20 21 21 20 19 18 18 18 19 21 24 25 24 23 24 26 27 26 25 25 26 27 29 29 28 26 23 23 23 23 23 23 23 23 23 22 20 20
22 22 23 23 23 23 23 23 24 24 24 24 24 24 24 24 24 23 23 23 23 23 24 23 20 17 16 18 21 22 22 23 23 22 22 22 22 23 22 22 21 21 21 21 22 22 21 21 21 21 21 20 19 19 19 19 18 19 22 24 25 24 25 26 26 25 25 25 25 27 29 29 26 22 19 19 20 22 23 23 22 22 22 21 20 19
22 22 23 23 23 23 23 23 24 24 24 24 25 25 24 24 23 23 23 23 22 22 22 21 20 18 17 18 19 19 19 20 21 23 23 23 23 23 23 23 22 21 21 21 22 22 22 23 23 22 20 16 14 15 18 19 18 18 19 22 23 22 22 23 25 26 27 26 26 28 30 28 23 19 18 18 19 20 21 22 22 22 21 20 19 18
21 22 22 23 23 23 23 24 24 24 24 25 25 25 25 24 23 23 23 23 23 22 21 20 19 19 19 20 20 19 19 19 20 21 23 23 23 23 23 23 24 23 23 22 21 20 21 22 22 22 21 17 12 11 15 18 19 19 19 21 21 21 21 23 26 27 28 27 29 30 30 25 21 18 17 17 16 17 19 20 22 22 21 20 18 17
21 22 22 22 22 22 23 23 23 23 24 25 25 26 26 25 24 23 22 22 22 21 20 19 19 18 18 19 20 20 20 20 20 20 21 22 22 22 23 23 24 24 23 23 22 20 20 19 18 16 16 17 17 15 16 17 19 20 21 21 20 20 20 23 25 27 28 28 29 30 29 25 22 20 17 13 11 12 17 19 20 21 21 20 19 18
22 21 22 22 22 22 22 23 23 23 23 24 24 25 26 26 25 23 22 22 21 20 20 19 18 17 17 18 19 20 19 19 19 20 21 21 21 21 21 22 22 22 22 22 21 20 19 17 15 13 11 11 13 15 15 16 18 20 21 21 20 20 20 22 25 27 28 28 28 28 27 25 23 22 19 13 10 10 14 16 18 20 21 22 22 21
22 22 22 22 22 22 22 23 23 23 23 23 24 24 25 25 24 24 23 22 21 21 20 20 19 18 17 18 19 20 19 18 18 19 20 21 21 20 20 20 19 18 17 15 15 16 14 12 11 11 12 11 10 10 12 15 17 18 17 19 21 21 21 22 24 27 28 27 27 26 25 23 22 21 19 15 11 8 10 12 15 19 22 24 24 23
Wind_Direction
301 302 303 304 303 302 302 303 304 303 303 302 302 301 300 299 298 297 296 295 294 293 292 291 290 289 289 289 290 292 292 293 293 293 293 292 292 291 291 291 290 290 290 290 290 290 290 291 291 291 291 290 290 290 289 288 288 287 286 286 285 283 282 280 279 279 278 277 276 276 275 276 276 276 275 274 273 273 272 272 271 270 269 268 267 266
302 303 303 303 302 301 302 303 303 302 300 300 300 299 299 297 297 296 296 294 293 292 291 290 290 290 290 291 291 292 292 293 293 293 293 293 292 292 292 292 291 291 291 292 292 292 292 292 292 291 291 290 290 289 289 288 287 286 286 285 283 282 281 280 280 280 279 279 278 278 278 279 279 279 278 277 276 274 273 273 271 270 269 269 268 269
304 304 304 304 303 301 302 303 302 300 298 297 297 297 297 296 295 295 294 294 293 292 290 290 291 292 291 291 291 291 292 293 293 294 294 294 294 294 294 294 293 293 293 293 293 293 292 292 291 291 290 290 289 289 288 288 287 287 286 285 283 282 281 281 281 280 280 279 278 279 280 281 283 283 283 282 280 278 277 276 274 273 272 271 270 269
302 302 303 304 303 301 299 299 299 299 298 296 295 295 295 294 294 293 292 292 293 293 292 291 292 292 292 291 291 292 293 294 295 296 296 296 296 296 295 295 294 294 293 293 292 292 291 291 290 289 289 288 288 288 287 287 287 287 286 285 283 282 282 281 281 281 280 280 280 281 282 283 283 284 284 284 282 281 280 279 278 277 276 274 273 271
299 300 302 303 302 300 298 297 297 297 297 295 294 295 295 294 294 293 292 294 294 294 294 295 294 293 293 293 293 294 295 296 297 297 297 296 296 295 295 294 293 293 292 292 291 291 290 290 289 289 288 288 287 287 287 287 287 286 286 285 284 283 282 282 283 283 283 283 284 284 284 284 284 284 284 283 282 281 280 280 279 278 277 276 275 273
297 298 300 300 298 297 297 296 296 296 296 296 296 296 297 296 295 294 293 296 296 296 297 297 296 296 295 295 296 296 297 297 297 297 296 296 295 294 294 294 293 293 292 292 292 291 291 291 290 290 289 289 288 288 288 288 287 286 285 285 286 286 287 287 287 287 286 286 286 286 286 285 285 284 283 281 280 278 277 277 276 276 275 275 274 273
297 298 297 296 294 293 293 293 294 295 298 299 301 301 300 299 297 296 295 297 298 298 299 299 298 298 297 297 298 298 298 297 296 295 295 294 294 294 294 294 294 294 293 293 292 292 292 292 292 291 291 291 291 290 290 289 289 288 289 290 291 291 291 291 290 289 288 287 287 286 286 285 284 283 281 280 278 277 275 274 274 274 273 273 272 271
297 297 296 294 293 292 291 290 292 297 301 303 303 303 302 301 301 300 300 300 300 301 302 302 301 300 299 299 298 298 297 296 295 294 294 294 295 295 295 295 294 294 293 293 293 293 293 292 292 292 291 291 291 291 291 291 291 291 292 293 293 293 293 292 291 289 288 287 286 286 285 283 282 281 279 278 277 275 275 274 273 272 272 271 270 269
292 292 292 291 290 290 292 295 299 303 304 302 299 298 299 301 303 304 304 304 304 304 305 304 303 301 299 298 298 296 295 294 293 294 295 296 296 296 296 295 294 294 293 293 293 292 292 291 291 291 291 291 292 292 292 291 291 291 292 292 293 293 292 292 290 289 288 286 285 284 283 282 281 279 278 277 276 275 274 273 272 271 271 270 269 268
286 286 287 288 289 291 298 304 307 307 305 301 298 296 296 300 304 307 308 307 307 306 305 303 301 300 299 299 297 296 295 294 294 295 296 296 295 295 294 293 293 293 292 292 292 291 291 291 290 290 291 290 290 290 290 290 290 290 290 291 291 291 291 290 289 288 287 285 284 283 282 281 280 279 278 277 276 275 273 273 272 271 270 269 268 267
285 284 285 289 297 305 308 307 306 306 306 304 303 302 302 303 306 309 309 308 307 306 305 302 299 298 298 299 298 297 297 297 297 297 296 294 293 292 291 291 291 291 291 291 291 291 290 290 290 289 289 289 288 288 288 288 288 289 289 290 290 290 290 289 288 287 286 285 284 283 282 281 280 279 278 277 275 274 273 272 271 270 268 267 267 266
286 288 293 304 314 315 311 308 308 308 309 309 308 308 307 308 309 309 307 305 304 304 303 301 299 297 297 297 298 299 299 299 298 297 295 293 292 291 290 290 290 290 291 291 290 290 289 289 288 288 287 287 287 287 287 287 287 288 288 289 289 289 289 288 287 286 286 284 284 283 282 281 280 279 278 277 275 274 273 272 270 269 267 266 265 264
289 301 315 317 314 311 310 310 310 311 311 311 310 310 309 309 308 306 302 299 299 299 299 299 298 297 297 297 298 299 299 298 296 295 293 292 292 291 291 291 291 292 292 291 289 288 288 288 287 287 286 285 286 286 286 286 286 287 287 288 288 288 287 287 286 285 284 283 282 281 280 279 279 278 277 276 275 274 273 271 270 269 268 267 266 265
310 321 319 314 310 309 310 311 311 311 310 310 309 307 306 306 304 302 299 296 296 297 297 296 296 296 298 299 299 298 297 296 295 295 294 293 293 294 294 293 293 292 292 290 289 288 288 288 286 285 284 284 284 284 284 285 285 286 286 287 287 286 285 285 284 282 282 281 280 279 278 277 277 276 275 274 273 272 271 270 270 270 270 270 270 269
325 322 315 311 309 309 310 310 310 309 307 307 306 305 304 302 301 299 297 295 296 297 298 297 297 298 299 301 301 301 299 297 296 296 295 295 295 296 296 295 293 292 291 290 288 288 288 286 285 283 282 282 282 283 284 285 286 286 286 286 286 285 284 283 282 281 281 280 279 278 277 277 276 275 274 273 272 271 271 271 272 273 275 275 275 274
319 315 311 309 308 308 308 308 307 306 305 305 304 303 301 299 298 297 295 294 295 297 300 301 303 302 302 303 303 303 302 300 299 298 297 297 297 298 298 296 294 292 291 289 288 287 287 285 283 282 281 281 282 284 285 286 286 287 287 286 286 285 285 284 283 282 281 281 280 279 278 277 277 276 275 275 274 274 274 275 276 278 278 277 276 275
312 310 308 307 306 306 306 306 305 303 302 302 301 300 298 295 295 294 293 293 295 299 302 305 305 303 304 305 306 307 307 306 303 301 299 298 298 298 298 295 292 291 290 289 287 286 285 284 282 282 282 282 283 285 286 287 287 287 287 287 286 286 285 285 284 283 282 281 281 280 279 279 279 278 278 278 277 277 277 278 279 279 278 277 276 274
308 307 306 305 304 304 304 304 303 301 300 300 299 297 296 293 292 292 292 294 298 302 304 304 302 298 299 303 305 307 310 309 306 302 300 298 298 298 298 295 291 289 288 287 286 285 284 282 283 284 284 285 287 287 288 288 288 287 287 287 286 286 285 285 284 284 283 282 282 281 281 280 280 280 280 279 278 278 278 278 277 277 276 275 274 273
305 304 304 302 302 301 301 300 299 299 298 297 296 295 294 294 294 295 296 299 301 302 302 301 299 297 296 297 301 305 309 309 305 301 298 296 297 298 298 295 290 287 286 286 286 286 285 284 284 284 285 286 287 287 287 287 287 287 286 286 286 286 285 285 285 285 284 284 283 283 282 281 280 280 279 278 278 277 276 276 275 274 273 272 271 270
302 301 300 299 299 299 297 296 295 294 294 293 293 293 293 296 300 302 303 303 302 300 299 296 295 295 297 298 300 303 307 307 303 298 296 295 296 297 298 296 291 288 288 287 288 289 288 287 286 286 286 286 287 287 287 287 286 286 286 286 286 286 286 286 286 285 285 284 284 283 282 282 281 280 279 278 277 276 275 274 273 273 271 270 269 268
299 298 297 296 296 294 292 292 291 290 290 291 293 295 299 303 305 305 304 302 300 298 297 294 293 295 298 299 300 302 304 304 300 295 294 294 295 296 298 297 294 291 291 291 292 291 290 288 287 287 288 287 287 287 287 287 287 287 287 287 287 287 286 286 286 285 285 285 284 283 283 282 281 280 279 278 277 276 275 274 273 272 271 269 268 267
296 295 294 294 291 289 286 286 287 290 293 297 300 303 305 306 305 303 302 301 299 298 296 295 295 296 297 297 297 299 301 298 294 291 292 292 293 295 299 299 297 294 292 292 292 292 291 291 289 288 288 288 289 289 289 288 288 288 287 287 287 287 286 286 286 286 285 285 284 283 283 282 281 280 279 278 277 275 274 273 272 271 270 269 268 266
293 292 292 291 289 286 285 287 291 297 303 306 305 304 303 302 301 300 300 300 299 298 297 296 295 296 295 295 296 297 298 296 292 290 290 287 291 296 300 301 299 295 292 293 294 295 295 294 293 291 290 290 289 289 289 288 288 288 287 287 287 287 286 286 286 285 285 284 284 283 282 281 280 279 278 277 276 275 274 272 271 270 269 268 267 266
293 291 291 291 292 293 297 301 305 307 308 306 304 302 300 299 298 298 298 298 297 296 296 297 297 297 297 298 298 298 298 298 296 294 291 288 290 295 299 301 299 296 294 295 297 298 297 295 294 292 291 290 290 289 289 288 288 288 288 287 287 287 287 286 285 284 284 283 282 281 280 280 279 278 278 277 276 275 274 273 271 270 269 267 266 265
294 293 294 297 300 303 305 305 305 305 305 304 304 303 302 302 301 300 299 297 297 297 298 299 298 298 300 302 301 301 301 301 300 296 292 290 291 293 298 300 299 297 296 297 299 299 298 296 295 294 292 291 290 290 289 288 288 288 288 288 287 287 287 286 285 284 284 283 283 282 282 282 281 281 280 279 278 277 276 275 274 272 270 269 267 266
297 299 301 303 305 304 304 303 303 303 303 304 304 304 305 304 303 302 300 299 300 301 301 300 298 298 301 302 302 301 303 304 302 297 293 292 292 294 297 300 299 297 297 298 300 300 298 297 296 295 294 292 291 289 288 287 286 287 287 287 288 287 287 287 287 287 286 286 286 285 285 284 283 282 281 281 280 279 278 277 275 274 273 271 269 267
303 304 305 305 305 305 304 304 304 304 304 304 304 304 305 305 304 303 302 303 304 305 303 299 295 298 302 302 301 302 304 305 303 299 295 293 292 293 297 301 302 300 299 300 300 300 299 297 296 295 294 292 291 289 286 286 286 287 289 289 290 290 289 289 289 289 288 287 286 285 284 283 282 281 280 279 278 277 276 275 274 273 272 271 269 267
309 308 308 307 306 306 306 306 305 305 305 304 304 305 306 306 304 303 302 303 304 302 299 296 295 297 300 299 302 303 304 303 302 301 300 297 294 294 298 303 304 303 302 301 301 300 298 296 295 294 293 293 292 291 290 291 292 292 292 291 291 290 290 289 289 288 287 285 284 283 282 281 280 279 278 277 276 275 274 273 273 272 271 269 268 266
313 311 310 309 308 308 307 306 306 305 305 305 305 306 306 305 302 299 298 300 299 298 297 297 297 297 298 301 302 302 302 302 303 305 308 304 298 296 300 304 305 305 305 304 303 302 300 298 297 296 295 296 297 297 297 297 296 294 292 291 290 289 289 288 288 287 286 285 284 283 282 282 281 280 279 279 278 277 277 276 275 274 273 271 268 265
316 315 313 311 310 309 308 307 306 306 306 306 307 307 305 302 298 294 294 295 295 294 296 298 299 299 300 301 302 300 300 302 306 310 312 308 300 298 303 304 304 305 307 308 306 304 303 303 303 302 301 301 301 300 299 298 297 295 292 290 289 289 289 289 288 288 288 287 287 286 286 285 284 283 283 282 281 279 278 277 276 275 273 271 268 265
317 316 314 312 310 309 309 308 308 308 308 308 308 306 304 300 297 294 294 294 293 293 295 297 297 298 299 300 300 296 298 303 307 310 311 306 299 298 303 304 304 305 307 308 307 303 306 306 307 307 306 304 303 301 300 299 297 295 293 291 291 291 291 291 290 290 290 290 289 289 288 287 286 285 284 282 281 279 278 276 275 273 271 268 265 262
316 314 313 311 310 310 311 311 310 310 310 309 308 306 304 301 299 297 297 296 294 293 293 294 294 295 295 294 291 290 293 300 304 307 309 304 299 298 302 302 303 304 305 304 301 298 301 305 308 309 308 306 304 303 301 300 298 296 294 293 292 291 292 293 293 292 292 292 291 290 288 287 286 285 283 282 280 279 277 276 274 271 269 266 262 259
314 312 311 311 311 311 312 312 312 311 310 309 308 307 306 303 302 301 299 297 295 294 293 293 293 294 293 292 289 288 291 295 300 304 306 304 300 299 301 302 302 303 304 302 298 294 292 293 302 306 307 307 305 304 303 302 300 298 295 294 292 292 293 294 293 293 292 292 291 290 289 288 286 284 283 281 280 278 277 275 273 270 267 265 262 259
313 312 312 312 313 313 313 313 312 312 311 309 309 308 308 306 305 304 301 299 297 295 292 291 291 292 293 293 291 290 292 295 299 303 305 303 300 299 301 301 302 303 303 301 299 297 295 295 299 303 306 307 306 305 304 302 301 299 297 295 294 294 294 294 293 292 291 291 290 289 288 288 286 285 284 282 280 277 276 274 271 268 265 263 261 259
313 313 314 314 315 314 314 314 313 313 312 311 310 310 309 309 307 306 304 302 300 297 294 292 290 289 290 290 291 291 293 296 299 302 303 301 298 297 300 301 301 302 302 300 300 300 298 299 300 302 305 306 307 306 305 304 303 302 300 297 295 294 293 292 291 290 290 290 289 288 287 287 286 285 284 283 281 279 276 274 271 267 264 262 259 257
314 314 315 315 315 315 315 315 314 314 313 312 312 311 311 309 308 306 305 303 301 299 297 294 291 288 286 285 284 286 289 294 297 300 300 298 296 295 296 298 300 300 300 299 299 299 297 299 302 303 303 302 304 306 307 307 307 306 303 300 298 295 292 291 290 289 288 288 287 287 287 286 286 285 284 284 283 280 278 275 272 268 265 263 260 257
315 315 315 316 315 315 315 315 315 314 314 314 313 313 312 310 308 307 305 303 302 301 299 296 293 290 287 285 283 283 285 290 293 295 295 295 293 292 291 293 296 297 296 295 297 298 298 298 300 302 300 296 297 304 307 309 310 309 306 304 301 298 296 294 292 290 288 286 286 286 287 286 285 284 284 284 282 280 278 275 272 270 266 264 261 258
315 315 315 316 316 316 315 315 314 314 314 314 313 313 311 309 307 306 305 303 301 301 300 300 297 294 293 290 288 287 287 289 291 293 294 294 293 290 289 290 292 293 292 291 292 295 296 297 299 301 300 298 299 302 305 307 309 308 307 306 304 301 298 297 296 294 291 288 288 288 288 287 286 285 284 284 282 280 277 276 273 270 267 264 262 259
316 315 315 315 315 316 315 314 314 313 313 313 312 311 310 309 307 306 305 304 302 301 301 300 298 297 296 295 293 292 291 291 292 294 295 294 293 291 289 289 290 291 291 290 289 289 290 291 292 296 298 301 303 304 304 305 305 305 306 308 308 306 303 302 301 298 295 292 291 291 290 289 288 286 284 283 282 279 276 274 273 271 267 264 261 259
315 315 314 314 315 315 314 313 312 312 312 312 311 311 310 310 310 309 309 308 307 305 304 302 300 299 298 296 296 296 295 295 295 296 296 296 295 293 290 289 289 290 292 290 288 287 287 288 290 293 295 297 300 302 303 302 302 304 306 308 309 308 307 306 303 301 298 296 293 291 291 291 290 288 285 283 281 278 275 273 273 271 268 262 257 255
315 314 314 314 315 314 314 313 312 312 312 311 311 312 313 312 313 313 313 313 312 310 309 308 307 306 303 301 300 299 299 298 298 298 299 299 299 297 293 291 290 290 291 290 290 289 290 290 292 294 295 295 296 297 297 298 299 302 304 302 301 302 303 303 302 301 300 299 297 295 293 292 291 290 288 286 284 282 280 277 274 272 269 262 254 248
315 314 314 314 314 314 314 313 313 313 313 313 313 313 314 313 314 314 315 314 314 314 313 313 312 310 308 306 305 305 304 303 303 303 304 304 304 302 299 296 294 293 293 293 293 294 294 293 292 291 292 293 295 295 296 296 298 300 300 298 298 300 303 304 304 304 303 301 300 299 296 294 293 292 291 290 289 289 288 284 279 274 268 262 254 247
314 314 313 313 314 314 314 314 314 315 316 316 315 314 314 314 314 314 314 313 313 314 314 314 312 310 307 307 308 310 310 310 310 309 308 309 309 308 306 304 301 299 297 296 297 296 296 294 292 290 290 292 292 291 292 294 297 299 299 299 300 302 305 306 307 307 306 303 302 300 298 297 295 295 294 294 294 294 293 291 287 282 275 267 258 250
313 313 314 314 314 315 316 316 317 317 317 316 315 315 315 315 315 314 313 312 312 313 314 314 312 310 307 306 309 312 314 314 314 314 313 314 315 315 312 309 306 302 300 297 295 297 298 297 295 293 292 291 289 288 288 290 294 297 299 300 300 298 295 299 303 305 305 304 303 302 300 299 298 298 298 297 296 296 296 296 295 293 289 281 269 257
314 314 315 316 316 316 316 316 317 317 317 316 315 315 316 316 316 315 313 312 312 312 313 313 312 310 309 310 312 315 316 316 317 317 318 320 321 320 317 313 309 307 304 299 295 294 294 295 296 295 295 292 289 285 284 286 290 294 298 301 302 300 296 298 301 302 303 303 303 303 303 303 301 300 298 297 297 298 298 298 297 297 296 293 283 269
317 317 317 317 317 316 316 316 317 317 317 317 316 316 317 317 317 316 314 312 311 311 312 312 311 308 307 311 313 315 316 317 318 320 321 322 322 321 321 319 315 311 308 304 300 296 291 289 289 291 293 293 290 286 282 283 286 291 296 302 305 304 304 304 305 305 305 304 304 305 307 307 305 301 298 297 298 299 301 301 300 299 299 298 293 283
317 316 316 316 316 315 315 316 317 318 318 317 317 317 317 317 317 316 316 314 312 311 311 311 310 308 307 308 310 312 313 314 317 320 322 322 322 323 323 322 321 318 313 309 304 300 296 292 289 286 285 285 287 288 287 286 287 290 295 301 305 307 308 309 309 310 310 309 308 308 310 310 308 305 302 301 301 302 303 304 304 304 303 301 298 293
316 315 315 315 314 314 315 316 317 317 317 317 317 317 318 318 317 317 315 315 313 312 312 312 311 309 309 310 309 310 311 313 315 317 320 322 322 323 324 325 324 323 321 318 312 307 304 302 297 289 279 271 271 280 286 290 294 296 299 303 306 308 309 310 312 314 315 314 313 313 313 312 310 307 305 304 305 306 306 306 307 308 309 308 304 300
314 313 313 313 313 313 314 315 316 316 315 315 315 316 317 318 317 316 314 314 313 312 312 311 310 309 309 310 310 310 312 314 315 317 319 320 322 323 325 326 327 328 328 327 325 322 319 316 311 300 284 268 262 266 277 287 296 301 304 307 309 310 310 312 315 317 318 317 317 317 317 315 313 310 308 306 305 306 308 309 310 312 315 315 313 309
314 313 312 312 312 312 313 314 314 314 314 313 314 315 316 317 317 316 316 315 314 313 311 310 309 308 308 309 311 312 314 315 316 317 319 320 321 323 325 327 329 331 333 334 335 335 334 331 327 321 309 284 266 263 272 286 299 306 309 311 312 314 314 315 317 319 320 319 320 320 321 320 320 319 316 313 308 307 311 314 315 317 320 322 321 318
315 314 313 313 313 312 313 313 313 312 312 311 311 312 314 315 316 316 317 317 316 314 311 310 308 308 309 310 312 314 316 316 316 317 318 319 321 322 323 326 329 333 335 337 339 341 341 338 335 333 331 323 307 292 291 298 304 308 310 314 317 319 318 318 319 321 322 322 322 323 324 325 327 327 325 322 316 311 316 319 320 321 323 325 325 324